Change the Weather History Date:

Wednesday, January 1, 2014

  Actual Average Record
Temperature  
Mean Temperature 40 °F 43 °F  
Max Temperature 48 °F 52 °F 70 °F (2004)
Min Temperature 31 °F 33 °F 21 °F (1998)
Degree Days  
Heating Degree Days 25 22  
Month to date heating degree days 25 22  
Since 1 July heating degree days 1162 1159  
Moisture  
Dew Point 32 °F    
Average Humidity 71    
Maximum Humidity 92    
Minimum Humidity 49    
Precipitation  
Precipitation T in 0.10 in 3.14 in (1974)
Month to date precipitation T 0.10  
Year to date precipitation T 0.10  
Snow  
Snow 0.00 in - - ()
Month to date snowfall 0.0  
Since 1 July snowfall 0.0  
Snow Depth 0.00 in    
Sea Level Pressure  
Sea Level Pressure 30.28 in    
Wind  
Wind Speed 1 mph (SE)    
Max Wind Speed 7 mph    
Max Gust Speed 8 mph    
Visibility 9 miles    
Events Rain    
T = Trace of Precipitation, MM = Missing Value Source: NWS Daily Summary

Daily Weather History Graph

Daily Weather History Graph

Search for Another Location

Airport or City:

Trip Planner

Search our weather history database for the weather conditions in past years. The results will help you decide how hot, cold, wet, or windy it might be!

Date:

Astronomy

Jan. 01, 2014 Rise Set
Actual Time 7:43 AM EST 5:40 PM EST
Civil Twilight 7:15 AM EST 6:08 PM EST
Nautical Twilight 6:44 AM EST 6:39 PM EST
Astronomical Twilight 6:14 AM EST 7:09 PM EST
Moon 7:35 AM EST (1/1) 6:20 PM EST (1/1)
Length of Visible Light 10h 52m
Length of Day
9h 57m
New Moon, 0% of the Moon is Illuminated
Jan 1
New Moon
Jan 7
First Quarter
Jan 15
Full
Jan 24
Last Quarter
Jan 30
New

Hourly Weather History & Observations

Time (EST) Temp. Windchill Dew Point Humidity Pressure Visibility Wind Dir Wind Speed Gust Speed Precip Events Conditions
12:53 AM 32.0 °F - 30.0 °F 92% 30.36 in 9.0 mi Calm Calm - N/A   Clear
1:53 AM 34.0 °F - 28.0 °F 79% 30.33 in 10.0 mi Calm Calm - N/A   Clear
2:53 AM 33.1 °F - 30.0 °F 89% 30.34 in 9.0 mi Calm Calm - N/A   Clear
3:53 AM 34.0 °F - 30.0 °F 85% 30.34 in 9.0 mi Calm Calm - N/A   Clear
4:53 AM 33.1 °F - 30.0 °F 89% 30.32 in 8.0 mi Calm Calm - N/A   Clear
5:53 AM 33.1 °F - 30.0 °F 89% 30.33 in 7.0 mi Calm Calm - N/A   Clear
6:53 AM 33.1 °F - 30.0 °F 89% 30.35 in 7.0 mi Calm Calm - N/A   Clear
7:53 AM 32.0 °F - 28.9 °F 88% 30.35 in 5.0 mi Calm Calm - N/A   Clear
8:53 AM 33.1 °F - 30.9 °F 92% 30.35 in 5.0 mi Calm Calm - N/A   Clear
9:53 AM 37.0 °F - 33.1 °F 86% 30.37 in 7.0 mi Calm Calm - N/A   Clear
10:53 AM 39.9 °F - 33.1 °F 77% 30.37 in 10.0 mi Calm Calm - N/A   Clear
11:53 AM 44.1 °F - 32.0 °F 63% 30.33 in 10.0 mi Calm Calm - N/A   Clear
12:53 PM 46.9 °F - 28.0 °F 48% 30.30 in 10.0 mi SE 4.6 mph - N/A   Clear
1:53 PM 46.9 °F - 28.0 °F 48% 30.26 in 10.0 mi ESE 3.5 mph - N/A   Mostly Cloudy
2:53 PM 48.0 °F - 30.0 °F 50% 30.24 in 10.0 mi South 3.5 mph - N/A   Overcast
3:53 PM 48.0 °F - 30.9 °F 52% 30.22 in 10.0 mi SSE 3.5 mph - N/A   Mostly Cloudy
4:53 PM 46.9 °F - 32.0 °F 56% 30.22 in 10.0 mi East 3.5 mph - N/A   Mostly Cloudy
5:53 PM 46.9 °F - 33.1 °F 59% 30.21 in 10.0 mi SE 3.5 mph - N/A   Overcast
6:53 PM 46.9 °F - 34.0 °F 61% 30.21 in 10.0 mi Calm Calm - N/A   Overcast
7:53 PM 46.0 °F 43.9 °F 34.0 °F 63% 30.19 in 10.0 mi SE 4.6 mph - N/A   Overcast
8:53 PM 46.0 °F - 35.1 °F 66% 30.20 in 10.0 mi Calm Calm - N/A   Overcast
9:53 PM 46.0 °F - 36.0 °F 68% 30.18 in 10.0 mi Calm Calm - N/A   Overcast
10:53 PM 46.0 °F - 37.0 °F 71% 30.17 in 10.0 mi Calm Calm - N/A   Overcast
11:53 PM 45.0 °F - 37.9 °F 76% 30.14 in 10.0 mi Calm Calm - 0.00 in Rain Light Rain